DW9314 Locust Valley NY US current weather conditions

sailwx.info

Wind from 028 at 1 knots gusting 8

Air temperature 10.0° C
Dewpoint 2.8° C

Last reported at 2019-Oct-19 00:00 UTC.
Time now 2019-Oct-19 00:32 UTC

Location: N 40°53' W 073°36'.
View on Google Maps.

See reports from other nearby stations

  
Tides and Currents Weather Stations Pressure Air Temp Water Temp Dewpoint Dewpoint Depression Visibility Wind Speed Wind Dir Waves Ship Positions
date/time (UTC)wind fromknots sea level pressurealtimeterstation pressurevisibilityair tempwater tempwave heightnotes
2019-Oct-19 00:00 028 1 gusting 8 10.0
2019-Oct-18 23:47 088 3 gusting 9 10.6
2019-Oct-18 23:31 034 2 gusting 7 10.6
2019-Oct-18 23:15 005 0 gusting 12 10.6
2019-Oct-18 23:01 298 3 gusting 11 10.6
2019-Oct-18 22:45 344 1 gusting 6 10.6
2019-Oct-18 22:30 315 3 gusting 13 11.1
2019-Oct-18 22:16 355 1 gusting 8 11.1
2019-Oct-18 22:00 311 2 gusting 7 11.1
2019-Oct-18 21:46 316 2 gusting 12 11.7
2019-Oct-18 21:31 311 0 gusting 7 12.2
2019-Oct-18 21:16 298 1 gusting 6 12.2
2019-Oct-18 21:00 049 1 gusting 9 12.8
2019-Oct-18 20:46 032 2 gusting 9 13.3
2019-Oct-18 20:30 360 2 gusting 10 13.3
2019-Oct-18 20:15 315 3 gusting 11 13.9
2019-Oct-18 20:00 324 1 gusting 8 14.4
2019-Oct-18 19:45 022 2 gusting 13 15.6
2019-Oct-18 19:30 049 0 gusting 8 15.6
2019-Oct-18 19:15 023 1 gusting 8 14.4
2019-Oct-18 19:00 196 1 gusting 7 15.0
2019-Oct-18 18:45 347 3 gusting 12 15.0
2019-Oct-18 18:30 237 2 gusting 9 15.0
2019-Oct-18 18:15 029 3 gusting 10 15.6
2019-Oct-18 18:02 296 0 gusting 13 16.1
2019-Oct-18 17:47 308 3 gusting 10 15.6
2019-Oct-18 17:32 040 0 gusting 12 15.6
2019-Oct-18 17:16 055 1 gusting 10 15.6
2019-Oct-18 17:01 226 2 gusting 11 15.0
2019-Oct-18 16:46 242 1 gusting 14 15.0
2019-Oct-18 16:31 023 4 gusting 11 15.0
2019-Oct-18 16:17 329 1 gusting 8 14.4
2019-Oct-18 16:01 329 2 gusting 9 14.4
2019-Oct-18 15:46 013 3 gusting 12 13.9
2019-Oct-18 15:31 355 1 gusting 13 13.9
2019-Oct-18 15:16 028 2 gusting 8 13.3
2019-Oct-18 15:02 199 0 gusting 10 13.3
2019-Oct-18 14:46 027 5 gusting 13 12.2
2019-Oct-18 14:30 025 1 gusting 8 11.1
2019-Oct-18 14:15 349 1 gusting 6 11.1
2019-Oct-18 14:01 339 2 gusting 8 11.1
2019-Oct-18 13:45 005 1 gusting 12 10.6
2019-Oct-18 13:30 314 1 gusting 9 10.6
2019-Oct-18 13:15 351 0 gusting 13 10.6
2019-Oct-18 13:00 013 4 gusting 9 10.6
2019-Oct-18 12:45 333 1 gusting 13 10.0
2019-Oct-18 12:30 233 2 gusting 13 10.0
2019-Oct-18 12:15
2019-Oct-18 12:00
2019-Oct-18 11:47
2019-Oct-18 11:31
2019-Oct-18 11:17
2019-Oct-18 11:01
2019-Oct-18 10:46
2019-Oct-18 10:31
2019-Oct-18 10:16
2019-Oct-18 10:01 259 1 gusting 7 9.4
2019-Oct-18 09:45 355 1 gusting 10 9.4
2019-Oct-18 09:31 360 2 gusting 13 10.0
2019-Oct-18 09:15 257 2 gusting 10 10.0
2019-Oct-18 09:00 331 0 gusting 8 10.0
2019-Oct-18 08:45 213 0 gusting 7 10.0
2019-Oct-18 08:30 308 0 gusting 9 10.0
2019-Oct-18 08:15 065 0 gusting 9 10.0
2019-Oct-18 08:00 064 2 gusting 7 10.0
2019-Oct-18 07:45 308 3 gusting 9 10.0
2019-Oct-18 07:30 009 3 gusting 10 10.0
2019-Oct-18 07:15 005 2 gusting 11 10.0
2019-Oct-18 07:01 344 1 gusting 10 10.6
2019-Oct-18 06:46 034 3 gusting 10 10.6
2019-Oct-18 06:32 069 2 gusting 9 10.6
2019-Oct-18 06:17 273 2 gusting 13 10.6
2019-Oct-18 06:01 288 1 gusting 12 10.6
2019-Oct-18 05:46 343 0 gusting 10 10.6
2019-Oct-18 05:31 307 0 gusting 8 10.6
2019-Oct-18 05:16 048 2 gusting 17 10.6
2019-Oct-18 05:01 338 0 gusting 10 11.1
2019-Oct-18 04:46 355 3 gusting 16 11.1
2019-Oct-18 04:31 267 2 gusting 10 11.1
2019-Oct-18 04:16 262 2 gusting 15 11.1
2019-Oct-18 04:00 071 3 gusting 15 11.7
2019-Oct-18 03:46 304 3 gusting 12 11.7
2019-Oct-18 03:30 232 0 gusting 14 11.7
2019-Oct-18 03:15 355 1 gusting 12 11.7
2019-Oct-18 03:00 284 2 gusting 13 11.7
2019-Oct-18 02:45 142 3 gusting 16 11.7
2019-Oct-18 02:30 028 3 gusting 14 11.7
2019-Oct-18 02:15 332 1 gusting 16 11.7
2019-Oct-18 02:01 295 6 gusting 13 11.7
2019-Oct-18 01:48 296 2 gusting 15 12.2
2019-Oct-18 01:32 205 3 gusting 13 12.2
2019-Oct-18 01:16 355 1 gusting 7 12.2
2019-Oct-18 01:02 038 4 gusting 18 12.2
2019-Oct-18 00:46 303 3 gusting 17 12.2
2019-Oct-18 00:31 261 1 gusting 6 12.2
2019-Oct-18 00:16 303 3 gusting 14 12.2
2019-Oct-18 00:00 281 2 gusting 11 12.8
2019-Oct-17 23:45 286 2 gusting 17 12.8
2019-Oct-17 23:30 292 2 gusting 13 12.8
2019-Oct-17 23:15 329 1 gusting 11 12.8
2019-Oct-17 23:00 304 1 gusting 8 12.8
2019-Oct-17 22:45 255 0 gusting 11 12.8
2019-Oct-17 22:31 097 4 gusting 13 12.8
2019-Oct-17 22:16 306 1 gusting 11 12.8
2019-Oct-17 22:01 279 2 gusting 13 12.8
2019-Oct-17 21:46 271 0 gusting 13 13.3
2019-Oct-17 21:30 332 1 gusting 7 13.3
2019-Oct-17 21:15 005 4 gusting 11 13.3
2019-Oct-17 21:01 059 3 gusting 11 13.3
2019-Oct-17 20:46 279 2 gusting 14 13.3
2019-Oct-17 20:30 260 0 gusting 13 13.3
2019-Oct-17 20:15 281 5 gusting 16 13.3
2019-Oct-17 20:00 044 3 gusting 14 13.9
2019-Oct-17 19:45 342 2 gusting 17 13.9
2019-Oct-17 19:30 059 4 gusting 13 13.3
2019-Oct-17 19:15 021 1 gusting 14 13.3
2019-Oct-17 19:01 306 2 gusting 10 13.3
2019-Oct-17 18:46 288 0 gusting 13 13.3
2019-Oct-17 18:31 298 5 gusting 19 13.3
2019-Oct-17 18:16 338 6 gusting 19 13.3
2019-Oct-17 18:01 165 3 gusting 13 13.3
2019-Oct-17 17:46 253 5 gusting 19 13.9
2019-Oct-17 17:31 281 2 gusting 19 13.3
2019-Oct-17 17:15 177 3 gusting 20 12.8
2019-Oct-17 17:01 111 4 gusting 19 12.8
2019-Oct-17 16:45 240 3 gusting 14 12.8
2019-Oct-17 16:30 212 3 gusting 15 12.8
2019-Oct-17 16:15 248 3 gusting 19 12.2
2019-Oct-17 16:00 313 4 gusting 13 12.2
2019-Oct-17 15:46 256 3 gusting 15 12.2
2019-Oct-17 15:31 187 2 gusting 15 12.2
2019-Oct-17 15:16 252 6 gusting 18 12.2
2019-Oct-17 15:01 360 3 gusting 12 12.2
2019-Oct-17 14:47 328 2 gusting 12 12.2
2019-Oct-17 14:31 273 3 gusting 13 11.7
2019-Oct-17 14:16 171 3 gusting 13 11.7
2019-Oct-17 14:00 130 5 gusting 12 11.1
2019-Oct-17 13:45 163 4 gusting 15 11.1
2019-Oct-17 13:30 257 4 gusting 14 11.1
2019-Oct-17 13:15 196 3 gusting 13 11.1
2019-Oct-17 13:00 164 4 gusting 13 11.1
2019-Oct-17 12:45 176 4 gusting 16 11.1
2019-Oct-17 12:30 182 4 gusting 11 10.6
2019-Oct-17 12:18
2019-Oct-17 12:01
2019-Oct-17 11:46
2019-Oct-17 11:31
2019-Oct-17 11:16
2019-Oct-17 11:01
2019-Oct-17 10:46
2019-Oct-17 10:31
2019-Oct-17 10:15
2019-Oct-17 10:00
2019-Oct-17 09:45
2019-Oct-17 09:30
2019-Oct-17 09:15
2019-Oct-17 09:02
2019-Oct-17 08:46 005 2 gusting 11 10.6
2019-Oct-17 08:31 057 2 gusting 8 10.6
2019-Oct-17 08:15 051 2 gusting 16 11.1
2019-Oct-17 08:00 262 2 gusting 20 10.6
2019-Oct-17 07:45 327 4 gusting 13 10.6
2019-Oct-17 07:31 005 2 gusting 13 10.6
2019-Oct-17 07:16 338 3 gusting 13 10.0
2019-Oct-17 07:00 259 2 gusting 16 10.0
2019-Oct-17 06:45 281 1 gusting 14 9.4
2019-Oct-17 06:30 325 4 gusting 13 10.0
2019-Oct-17 06:15 021 4 gusting 25 10.0
2019-Oct-17 06:00 303 4 gusting 19 10.0
2019-Oct-17 05:45 289 3 gusting 12 10.0
2019-Oct-17 05:31 295 4 gusting 15 10.0
2019-Oct-17 05:16 295 6 gusting 19 10.6
2019-Oct-17 05:01 328 5 gusting 18 10.6
2019-Oct-17 04:46 278 5 gusting 12 11.1
2019-Oct-17 04:31 208 3 gusting 17 11.1
2019-Oct-17 04:15 275 5 gusting 23 11.7
2019-Oct-17 04:00 025 3 gusting 19 11.7
2019-Oct-17 03:45 207 6 gusting 21 13.9
2019-Oct-17 03:31 047 4 gusting 19 14.4
2019-Oct-17 03:16 291 4 gusting 15 16.1
2019-Oct-17 03:00 182 17.2
2019-Oct-17 02:45 185 17.2
2019-Oct-17 02:30 175 16.7
2019-Oct-17 02:15 223 16.7
2019-Oct-17 02:02 314 16.7
2019-Oct-17 01:47 156 0 gusting 4 16.7
2019-Oct-17 01:31 114 0 gusting 6 16.7
2019-Oct-17 01:15 142 0 gusting 6 16.1
2019-Oct-17 01:02 072 0 gusting 9 16.1
2019-Oct-17 00:46 345 0 gusting 6 15.6
2019-Oct-17 00:31 130 0 gusting 8 15.6
2019-Oct-17 00:15 024 1 gusting 10 15.6
2019-Oct-17 00:00 136 15.6